Location: McMath-Hulbert Observatory
(42.6964°N, 83.3187°W)
Time: 05:18:45
(UTC-05:00)

Daily predictions for brighter satellites

Satellite Brightness Start Highest point End
(mag) Time Altitude Azimuth Time Altitude Azimuth Time Altitude Azimuth
Cosmos 2369 Rocket 4.0 03:43:44 27° ENE 03:43:44 27° ENE 03:46:37 10° NE
ATLAS 5 CENTAUR R/B 3.1 04:22:37 39° ENE 04:22:37 39° ENE 04:26:11 10° NE
Cosmos 1943 Rocket 2.8 04:28:16 47° ESE 04:28:39 48° ESE 04:33:58 10° NE
CZ-4B R/B 3.5 04:25:00 10° NNE 04:30:06 68° ENE 04:30:06 68° ENE
Cosmos 1624 Rocket 4.5 04:33:05 58° NE 04:33:05 58° NE 04:37:32 10° NNE
Cosmos 2056 Rocket 4.0 04:34:28 56° ENE 04:34:28 56° ENE 04:38:48 10° NNE
Okean-O 4.5 04:29:52 10° NE 04:33:43 28° E 04:35:44 20° SE
CZ-4C R/B 4.1 04:33:26 15° SSE 04:36:26 24° ESE 04:40:57 10° ENE
PAYLOAD B 4.4 04:56:34 10° N 05:01:26 55° NW 05:01:26 55° NW
Thor Agena Rocket 3.9 04:59:21 10° SSE 05:04:30 64° ENE 05:09:37 10° N
Cosmos 1703 Rocket 4.0 05:04:08 24° SSE 05:06:34 58° E 05:10:52 10° NNE
ADEOS II 2.2 05:02:28 10° N 05:07:16 57° NW 05:07:16 57° NW
USA 234 3.1 05:01:18 10° NE 05:07:52 86° NW 05:10:14 43° SW
Cosmos 972 4.5 05:07:46 36° S 05:09:48 77° ESE 05:14:59 10° NNE
Lacrosse 5 1.7 05:10:00 68° SW 05:10:39 89° NW 05:15:45 10° NE
CZ-4B DEB 4.4 05:08:36 10° N 05:13:56 50° WNW 05:13:59 50° WNW
Meteor 1-31 Rocket 2.8 05:10:29 10° NNE 05:14:24 74° ESE 05:14:57 61° SSE
Cosmos 1452 Rocket 3.9 05:10:36 15° S 05:15:00 65° ESE 05:20:15 10° NNE
Okean O Rocket 3.7 05:12:06 10° N 05:13:00 15° NNW 05:13:00 15° NNW
Cosmos 2219 4.1 05:14:32 10° NNW 05:20:04 49° ENE 05:25:31 10° SE
Cosmos 2369 Rocket 3.0 05:25:33 32° NW 05:25:33 32° NW 05:30:31 10° N
Feng Yun 1-1 Rocket 4.3 05:24:20 10° NNE 05:30:14 83° WNW 05:36:10 10° SSW
Cosmos 407 Rocket 3.7 05:28:00 22° NW 05:31:13 49° WSW 05:36:20 10° S
ATLAS 3B R/B 4.5 05:25:20 10° S 05:31:58 34° ESE 05:38:24 10° NE
COSMO-SKYMED 1 3.1 05:28:26 10° SSE 05:32:41 59° ENE 05:36:59 10° N
Cosmos 2221 Rocket 3.5 05:29:57 10° S 05:34:30 88° W 05:39:06 10° N
Cosmos 676 Rocket 3.9 05:29:45 10° NNW 05:35:01 66° WSW 05:40:17 10° S
Cosmos 1656 Rocket 3.8 05:29:30 10° SSW 05:35:10 79° ESE 05:40:53 10° NNE
CZ-4B R/B 3.9 05:36:51 10° N 05:40:44 57° WNW 05:42:48 26° SW
NOSS 3 (A) 4.5 05:44:39 61° WNW 05:44:41 61° NW 05:47:55 10° NNE
Cosmos 1833 4.4 05:41:47 12° NW 05:46:43 44° WSW 05:51:58 10° S
Abrixas 3.6 05:50:43 27° NNW 05:51:00 28° N 05:53:35 10° NE
Cosmos 1140 Rocket 3.4 05:47:03 10° NNW 05:52:17 75° WSW 05:57:30 10° SSE
Okean 1-7 3.0 05:55:25 10° SSW 05:59:37 54° W 06:03:48 10° N
ERS-2 4.2 05:57:14 10° NNW 05:58:08 14° NW 05:58:08 14° NW
Lacrosse 5 rocket 3.2 05:57:21 10° NNW 06:00:11 21° NNE 06:03:00 10° E
Cosmos 614 Rocket 3.9 05:56:12 10° NNW 06:01:18 82° WSW 06:06:26 10° SSE
Cosmos 1745 Rocket 3.9 05:55:18 10° N 06:01:28 80° W 06:07:34 10° S
SKYMED 3 4.5 05:58:25 10° S 06:02:43 65° WSW 06:07:03 10° NNW
Radarsat Rocket 4.3 05:56:32 10° NNE 06:03:56 84° WNW 06:10:25 10° SSW
ATLAS 5 CENTAUR R/B 3.0 06:04:11 21° WNW 06:06:13 27° NW 06:10:41 10° NNE
Cosmos 1386 Rocket 4.5 06:02:08 10° N 06:08:13 89° E 06:14:20 10° S
Meteor 2-10 Rocket 3.9 06:04:14 10° SW 06:08:49 36° WNW 06:13:31 10° N
Tiangong 1 1.0 06:07:42 26° WSW 06:09:08 66° SSE 06:12:04 10° E
Cosmos 1782 Rocket 4.1 06:05:20 10° NNW 06:09:23 35° W 06:13:25 10° SSW
Okean-O 3.5 06:06:22 10° N 06:10:08 28° WNW 06:13:21 13° WSW
CZ-2C R/B 4.3 06:05:48 10° NNE 06:10:16 34° E 06:14:49 10° SSE
Cosmos 1633 4.0 06:08:02 10° N 06:11:30 41° ENE 06:14:56 10° SSE
Cosmos 1943 Rocket 3.1 06:09:50 18° W 06:12:37 27° NW 06:17:17 10° N
Meteor 1-20 Rocket 4.2 06:08:26 10° NNW 06:14:07 65° W 06:19:38 10° S
Meteor 1-28 Rocket 3.1 06:11:20 10° S 06:15:01 61° W 06:18:44 10° NNW
Cosmos 1850 Rocket 4.0 06:11:53 10° NNW 06:17:13 72° WSW 06:22:29 10° S
SKYMED 2 4.0 06:16:44 10° S 06:20:49 40° W 06:24:56 10° NNW
Cosmos 1782 2.8 06:17:12 10° SSW 06:21:07 59° W 06:25:03 10° N
IDEFIX/ARIANE 42P 3.7 06:19:04 10° NNE 06:24:09 49° E 06:29:10 10° S
CZ-4C R/B 2.4 06:19:12 10° SW 06:24:25 53° NW 06:30:22 10° NNE
Ariane Rocket 3.0 06:23:51 10° NNE 06:28:58 82° WNW 06:34:02 10° SSW
CSL-04 Rocket 3.7 06:24:29 10° NNE 06:29:53 87° ESE 06:35:20 10° SSW
Okean 2 Rocket 4.0 06:28:27 10° NNW 06:32:08 27° W 06:35:48 10° SW
Cosmos 1602 4.0 06:28:34 10° N 06:32:32 74° E 06:36:29 10° SSE
Cosmos 1420 Rocket 4.3 06:27:47 10° SW 06:32:42 43° WNW 06:37:39 10° N
Cosmos 1674 Rocket 3.6 06:32:15 10° S 06:36:38 89° ESE 06:41:07 10° N
Cosmos 1606 2.9 06:33:58 10° SSW 06:37:42 48° W 06:41:30 10° N
Meteor 2-6 Rocket 4.2 06:39:33 10° SSW 06:44:50 57° WNW 06:50:11 10° N
USA 234 4.1 06:44:35 10° NE 06:50:23 36° NNW 06:56:12 10° W
Cosmos 2297 Rocket 2.7 06:45:41 10° NNW 06:51:19 65° ENE 06:56:54 10° SE
Cosmos 2151 Rocket 4.2 06:47:14 10° NNW 06:51:22 36° W 06:55:26 10° SSW
USA 238 DEB 4.2 06:47:16 10° SSW 06:54:12 69° ESE 07:01:11 10° NE
USA 238 4.3 06:47:22 10° SSW 06:54:17 68° ESE 07:01:16 10° NE
